Time,TemperatureF,DewpointF,PressureIn,WindDirection,WindDirectionDegrees,WindSpeedMPH,WindSpeedGustMPH,Humidity,HourlyPrecipIn,Conditions,Clouds,dailyrainin,SoftwareType,DateUTC
2013-07-29 00:04:00,82.8,71.1,29.97,East,90,2.0,7.0,68,0.00,,,0.00,meteohub,2013-07-29 05:04:00,
2013-07-29 00:09:00,82.4,70.7,29.98,NE,45,4.0,7.0,68,0.00,,,0.00,meteohub,2013-07-29 05:09:00,
2013-07-29 00:14:00,82.2,71.4,29.98,East,90,2.0,7.0,70,0.00,,,0.00,meteohub,2013-07-29 05:14:00,
2013-07-29 00:19:00,82.0,71.8,29.98,East,90,3.0,4.0,71,0.00,,,0.00,meteohub,2013-07-29 05:19:00,
2013-07-29 00:24:00,81.9,71.6,29.98,NE,45,2.0,4.0,71,0.00,,,0.00,meteohub,2013-07-29 05:24:00,
2013-07-29 00:29:00,81.9,72.0,29.98,SE,135,7.0,7.0,72,0.00,,,0.00,meteohub,2013-07-29 05:29:00,
2013-07-29 00:34:00,81.9,72.3,29.98,East,90,4.0,7.0,73,0.00,,,0.00,meteohub,2013-07-29 05:34:00,
2013-07-29 00:39:00,81.7,72.1,29.98,East,90,3.0,7.0,73,0.00,,,0.00,meteohub,2013-07-29 05:39:00,
2013-07-29 00:45:00,81.5,72.0,29.98,NE,45,3.0,7.0,73,0.00,,,0.00,meteohub,2013-07-29 05:45:00,
2013-07-29 00:50:00,81.3,71.8,29.98,NE,45,3.0,5.0,73,0.00,,,0.00,meteohub,2013-07-29 05:50:00,
2013-07-29 00:55:00,81.1,72.1,29.98,North,0,4.0,6.0,74,0.00,,,0.00,meteohub,2013-07-29 05:55:00,
2013-07-29 01:00:00,81.1,72.5,29.98,NE,45,4.0,6.0,75,0.00,,,0.00,meteohub,2013-07-29 06:00:00,
2013-07-29 01:05:00,81.1,72.5,29.98,NE,45,4.0,6.0,75,0.00,,,0.00,meteohub,2013-07-29 06:05:00,
2013-07-29 01:10:00,80.8,72.9,29.98,East,90,3.0,4.0,77,0.00,,,0.00,meteohub,2013-07-29 06:10:00,
2013-07-29 01:15:00,80.8,73.2,29.99,NE,45,3.0,8.0,78,0.00,,,0.00,meteohub,2013-07-29 06:15:00,
2013-07-29 01:20:00,80.6,73.4,29.99,East,90,5.0,8.0,79,0.00,,,0.00,meteohub,2013-07-29 06:20:00,
2013-07-29 01:25:00,80.4,74.1,29.98,North,0,3.0,8.0,81,0.00,,,0.00,meteohub,2013-07-29 06:25:00,
2013-07-29 01:30:00,80.4,74.1,29.99,NE,45,4.0,8.0,81,0.00,,,0.00,meteohub,2013-07-29 06:30:00,
2013-07-29 01:35:00,80.2,74.3,29.99,ENE,68,4.0,8.0,82,0.00,,,0.00,meteohub,2013-07-29 06:35:00,
2013-07-29 01:40:00,80.2,74.3,29.99,North,0,6.0,8.0,82,0.00,,,0.00,meteohub,2013-07-29 06:40:00,
2013-07-29 01:45:00,80.1,74.5,29.98,East,90,8.0,8.0,83,0.00,,,0.00,meteohub,2013-07-29 06:45:00,
2013-07-29 01:50:00,80.1,74.5,29.98,NE,45,4.0,8.0,83,0.00,,,0.00,meteohub,2013-07-29 06:50:00,
2013-07-29 01:56:00,80.1,74.5,29.98,NE,45,3.0,14.0,83,0.00,,,0.00,meteohub,2013-07-29 06:56:00,
2013-07-29 02:01:00,79.9,74.7,29.98,NW,315,5.0,14.0,84,0.00,,,0.00,meteohub,2013-07-29 07:01:00,
2013-07-29 02:06:00,79.9,74.7,29.98,NE,45,5.0,14.0,84,0.00,,,0.00,meteohub,2013-07-29 07:06:00,
2013-07-29 02:11:00,79.7,74.5,29.98,North,0,3.0,9.0,84,0.00,,,0.00,meteohub,2013-07-29 07:11:00,
2013-07-29 02:16:00,79.7,74.5,29.98,SE,135,4.0,9.0,84,0.00,,,0.00,meteohub,2013-07-29 07:16:00,
2013-07-29 02:21:00,79.7,74.5,29.99,NE,45,3.0,7.0,84,0.00,,,0.00,meteohub,2013-07-29 07:21:00,
2013-07-29 02:26:00,79.7,74.8,29.99,NE,45,7.0,7.0,85,0.00,,,0.00,meteohub,2013-07-29 07:26:00,
2013-07-29 02:31:00,79.7,74.8,29.99,East,90,10.0,10.0,85,0.00,,,0.00,meteohub,2013-07-29 07:31:00,
2013-07-29 02:36:00,79.9,74.7,29.99,East,90,5.0,10.0,84,0.00,,,0.00,meteohub,2013-07-29 07:36:00,
2013-07-29 02:41:00,79.9,74.7,29.99,NE,45,3.0,10.0,84,0.00,,,0.00,meteohub,2013-07-29 07:41:00,
2013-07-29 02:46:00,80.1,74.8,29.99,NE,45,4.0,10.0,84,0.00,,,0.00,meteohub,2013-07-29 07:46:00,
2013-07-29 02:51:00,80.1,74.8,29.99,East,90,4.0,7.0,84,0.00,,,0.00,meteohub,2013-07-29 07:51:00,
2013-07-29 02:56:00,80.1,74.8,29.99,NE,45,3.0,7.0,84,0.00,,,0.00,meteohub,2013-07-29 07:56:00,
2013-07-29 03:02:00,80.1,74.8,29.99,East,90,3.0,7.0,84,0.00,,,0.00,meteohub,2013-07-29 08:02:00,
2013-07-29 03:07:00,80.1,74.8,29.99,East,90,3.0,6.0,84,0.00,,,0.00,meteohub,2013-07-29 08:07:00,
2013-07-29 03:12:00,80.4,74.8,29.99,NE,45,5.0,5.0,83,0.00,,,0.00,meteohub,2013-07-29 08:12:00,
2013-07-29 03:17:00,80.4,74.8,29.99,NE,45,4.0,8.0,83,0.00,,,0.00,meteohub,2013-07-29 08:17:00,
2013-07-29 03:22:00,80.4,74.8,29.99,East,90,4.0,9.0,83,0.00,,,0.00,meteohub,2013-07-29 08:22:00,
2013-07-29 03:27:00,80.4,74.8,29.99,NE,45,10.0,10.0,83,0.00,,,0.00,meteohub,2013-07-29 08:27:00,
2013-07-29 03:32:00,80.4,74.8,29.99,East,90,5.0,10.0,83,0.00,,,0.00,meteohub,2013-07-29 08:32:00,
2013-07-29 03:37:00,80.4,74.8,29.99,East,90,5.0,10.0,83,0.00,,,0.00,meteohub,2013-07-29 08:37:00,
2013-07-29 03:42:00,80.4,74.8,29.99,NE,45,3.0,10.0,83,0.00,,,0.00,meteohub,2013-07-29 08:42:00,
2013-07-29 03:47:00,80.4,74.8,29.99,NE,45,2.0,10.0,83,0.00,,,0.00,meteohub,2013-07-29 08:47:00,
2013-07-29 03:52:00,80.4,74.8,29.99,NE,45,8.0,10.0,83,0.00,,,0.00,meteohub,2013-07-29 08:52:00,
2013-07-29 03:57:00,80.4,74.8,29.99,NE,45,3.0,8.0,83,0.00,,,0.00,meteohub,2013-07-29 08:57:00,
2013-07-29 04:02:00,80.4,74.8,29.99,NE,45,4.0,10.0,83,0.00,,,0.00,meteohub,2013-07-29 09:02:00,
2013-07-29 04:07:00,80.4,74.8,29.99,NE,45,7.0,10.0,83,0.00,,,0.00,meteohub,2013-07-29 09:07:00,
2013-07-29 04:12:00,80.4,75.2,29.99,NE,45,4.0,10.0,84,0.00,,,0.00,meteohub,2013-07-29 09:12:00,
2013-07-29 04:17:00,80.4,75.2,30.00,East,90,3.0,10.0,84,0.00,,,0.00,meteohub,2013-07-29 09:17:00,
2013-07-29 04:23:00,80.4,75.2,30.00,North,0,4.0,7.0,84,0.00,,,0.00,meteohub,2013-07-29 09:23:00,
2013-07-29 04:28:00,80.4,75.2,30.00,East,90,4.0,6.0,84,0.00,,,0.00,meteohub,2013-07-29 09:28:00,
2013-07-29 04:33:00,80.1,74.8,30.00,East,90,3.0,5.0,84,0.00,,,0.00,meteohub,2013-07-29 09:33:00,
2013-07-29 04:38:00,80.1,74.8,30.00,North,0,2.0,5.0,84,0.00,,,0.00,meteohub,2013-07-29 09:38:00,
2013-07-29 04:43:00,80.1,74.8,30.01,NE,45,2.0,6.0,84,0.00,,,0.00,meteohub,2013-07-29 09:43:00,
2013-07-29 04:48:00,79.9,74.7,30.01,NW,315,4.0,6.0,84,0.00,,,0.00,meteohub,2013-07-29 09:48:00,
2013-07-29 04:53:00,79.9,74.7,30.01,NE,45,2.0,4.0,84,0.00,,,0.00,meteohub,2013-07-29 09:53:00,
2013-07-29 04:58:00,79.7,74.8,30.01,NE,45,3.0,4.0,85,0.00,,,0.00,meteohub,2013-07-29 09:58:00,
2013-07-29 05:03:00,79.7,74.8,30.01,NW,315,4.0,4.0,85,0.00,,,0.00,meteohub,2013-07-29 10:03:00,
2013-07-29 05:09:00,79.5,74.7,30.01,NE,45,2.0,4.0,85,0.00,,,0.00,meteohub,2013-07-29 10:09:00,
2013-07-29 05:14:00,79.2,74.7,30.00,NE,45,2.0,4.0,86,0.00,,,0.00,meteohub,2013-07-29 10:14:00,
2013-07-29 05:19:00,79.0,74.5,30.00,East,90,3.0,4.0,86,0.00,,,0.00,meteohub,2013-07-29 10:19:00,
2013-07-29 05:24:00,78.8,74.3,30.00,East,90,2.0,4.0,86,0.00,,,0.00,meteohub,2013-07-29 10:24:00,
2013-07-29 05:30:00,78.6,74.8,30.00,NE,45,4.0,4.0,88,0.00,,,0.00,meteohub,2013-07-29 10:30:00,
2013-07-29 05:35:00,78.6,74.8,30.00,NE,45,5.0,5.0,88,0.00,,,0.00,meteohub,2013-07-29 10:35:00,
2013-07-29 05:40:00,78.6,74.8,29.99,NE,45,3.0,4.0,88,0.00,,,0.00,meteohub,2013-07-29 10:40:00,
2013-07-29 05:45:00,78.4,74.7,30.00,East,90,3.0,5.0,88,0.00,,,0.00,meteohub,2013-07-29 10:45:00,
2013-07-29 05:50:00,78.4,74.7,30.00,East,90,2.0,5.0,88,0.00,,,0.00,meteohub,2013-07-29 10:50:00,
2013-07-29 05:55:00,78.3,74.5,30.00,NE,45,2.0,5.0,88,0.00,,,0.00,meteohub,2013-07-29 10:55:00,
2013-07-29 06:01:00,78.1,74.3,30.00,East,90,2.0,5.0,88,0.00,,,0.00,meteohub,2013-07-29 11:01:00,
2013-07-29 06:06:00,77.9,74.1,30.00,NE,45,1.0,4.0,88,0.00,,,0.00,meteohub,2013-07-29 11:06:00,
2013-07-29 06:11:00,77.7,74.3,30.00,NE,45,2.0,2.0,89,0.00,,,0.00,meteohub,2013-07-29 11:11:00,
2013-07-29 06:17:00,77.5,74.1,30.00,East,90,2.0,2.0,89,0.00,,,0.00,meteohub,2013-07-29 11:17:00,
2013-07-29 06:22:00,77.5,74.1,30.00,NE,45,2.0,2.0,89,0.00,,,0.00,meteohub,2013-07-29 11:22:00,
2013-07-29 06:27:00,77.4,73.9,30.01,East,90,2.0,2.0,89,0.00,,,0.00,meteohub,2013-07-29 11:27:00,
2013-07-29 06:32:00,77.2,73.8,30.01,NE,45,4.0,4.0,89,0.00,,,0.00,meteohub,2013-07-29 11:32:00,
2013-07-29 06:37:00,77.2,73.8,30.01,East,90,3.0,4.0,89,0.00,,,0.00,meteohub,2013-07-29 11:37:00,
2013-07-29 06:42:00,77.2,73.8,30.01,East,90,4.0,4.0,89,0.00,,,0.00,meteohub,2013-07-29 11:42:00,
2013-07-29 06:47:00,77.4,73.9,30.01,NE,45,4.0,4.0,89,0.00,,,0.00,meteohub,2013-07-29 11:47:00,
2013-07-29 06:53:00,77.4,73.6,30.01,NE,45,2.0,5.0,88,0.00,,,0.00,meteohub,2013-07-29 11:53:00,
2013-07-29 06:58:00,77.2,73.4,30.01,East,90,2.0,5.0,88,0.00,,,0.00,meteohub,2013-07-29 11:58:00,
2013-07-29 07:03:00,77.2,73.4,30.01,NE,45,2.0,5.0,88,0.00,,,0.00,meteohub,2013-07-29 12:03:00,
2013-07-29 07:08:00,77.4,73.6,30.01,SE,135,1.0,2.0,88,0.00,,,0.00,meteohub,2013-07-29 12:08:00,
2013-07-29 07:13:00,77.4,73.6,30.02,SE,135,2.0,2.0,88,0.00,,,0.00,meteohub,2013-07-29 12:13:00,
2013-07-29 07:18:00,77.4,73.6,30.02,East,90,3.0,3.0,88,0.00,,,0.00,meteohub,2013-07-29 12:18:00,
2013-07-29 07:24:00,77.5,73.8,30.02,East,90,2.0,4.0,88,0.00,,,0.00,meteohub,2013-07-29 12:24:00,
2013-07-29 07:29:00,77.7,73.9,30.03,East,90,6.0,6.0,88,0.00,,,0.00,meteohub,2013-07-29 12:29:00,
2013-07-29 07:35:00,77.9,73.8,30.03,East,90,7.0,7.0,87,0.00,,,0.00,meteohub,2013-07-29 12:35:00,
2013-07-29 07:40:00,78.3,73.8,30.03,ENE,68,4.0,7.0,86,0.00,,,0.00,meteohub,2013-07-29 12:40:00,
2013-07-29 07:45:00,78.3,73.8,30.03,East,90,6.0,8.0,86,0.00,,,0.00,meteohub,2013-07-29 12:45:00,
2013-07-29 07:50:00,78.4,73.9,30.03,North,0,4.0,8.0,86,0.00,,,0.00,meteohub,2013-07-29 12:50:00,
2013-07-29 07:55:00,78.6,73.8,30.04,North,0,4.0,6.0,85,0.00,,,0.00,meteohub,2013-07-29 12:55:00,
2013-07-29 08:00:00,78.6,73.8,30.04,NE,45,4.0,7.0,85,0.00,,,0.00,meteohub,2013-07-29 13:00:00,
2013-07-29 08:05:00,78.8,73.6,30.04,East,90,3.0,8.0,84,0.00,,,0.00,meteohub,2013-07-29 13:05:00,
2013-07-29 08:10:00,78.8,73.6,30.04,NE,45,5.0,8.0,84,0.00,,,0.00,meteohub,2013-07-29 13:10:00,
2013-07-29 08:15:00,78.8,73.6,30.04,East,90,5.0,8.0,84,0.00,,,0.00,meteohub,2013-07-29 13:15:00,
2013-07-29 08:20:00,79.0,73.8,30.05,SE,135,5.0,5.0,84,0.00,,,0.00,meteohub,2013-07-29 13:20:00,
2013-07-29 08:25:00,79.3,74.1,30.05,East,90,4.0,5.0,84,0.00,,,0.00,meteohub,2013-07-29 13:25:00,
2013-07-29 08:30:00,79.7,74.1,30.05,East,90,6.0,6.0,83,0.00,,,0.00,meteohub,2013-07-29 13:30:00,
2013-07-29 08:36:00,79.9,73.9,30.05,East,90,7.0,11.0,82,0.00,,,0.00,meteohub,2013-07-29 13:36:00,
2013-07-29 08:41:00,80.1,73.8,30.05,NE,45,3.0,11.0,81,0.00,,,0.00,meteohub,2013-07-29 13:41:00,
2013-07-29 08:47:00,80.4,74.1,30.05,SE,135,8.0,11.0,81,0.00,,,0.00,meteohub,2013-07-29 13:47:00,
2013-07-29 08:52:00,80.6,73.4,30.05,NE,45,8.0,8.0,79,0.00,,,0.00,meteohub,2013-07-29 13:52:00,
2013-07-29 08:57:00,80.8,73.2,30.05,NE,45,8.0,8.0,78,0.00,,,0.00,meteohub,2013-07-29 13:57:00,
2013-07-29 09:02:00,81.0,73.0,30.05,East,90,7.0,8.0,77,0.00,,,0.00,meteohub,2013-07-29 14:02:00,
2013-07-29 09:07:00,81.7,73.8,30.05,East,90,3.0,8.0,77,0.00,,,0.00,meteohub,2013-07-29 14:07:00,
2013-07-29 09:12:00,82.2,73.9,30.06,NE,45,6.0,8.0,76,0.00,,,0.00,meteohub,2013-07-29 14:12:00,
2013-07-29 09:17:00,82.0,72.5,30.06,East,90,8.0,8.0,73,0.00,,,0.00,meteohub,2013-07-29 14:17:00,
2013-07-29 09:22:00,81.7,72.5,30.05,East,90,12.0,12.0,74,0.00,,,0.00,meteohub,2013-07-29 14:22:00,
2013-07-29 09:27:00,82.0,72.5,30.06,South,180,11.0,12.0,73,0.00,,,0.00,meteohub,2013-07-29 14:27:00,
2013-07-29 09:32:00,82.4,72.5,30.05,SE,135,8.0,14.0,72,0.00,,,0.00,meteohub,2013-07-29 14:32:00,
2013-07-29 09:38:00,82.9,72.5,30.05,East,90,8.0,14.0,71,0.00,,,0.00,meteohub,2013-07-29 14:38:00,
2013-07-29 09:43:00,83.5,72.7,30.05,NE,45,6.0,14.0,70,0.00,,,0.00,meteohub,2013-07-29 14:43:00,
2013-07-29 09:48:00,84.2,72.0,30.05,East,90,11.0,12.0,67,0.00,,,0.00,meteohub,2013-07-29 14:48:00,
2013-07-29 09:53:00,84.0,73.2,30.06,East,90,7.0,14.0,70,0.00,,,0.00,meteohub,2013-07-29 14:53:00,
2013-07-29 09:58:00,84.2,72.5,30.05,NE,45,8.0,14.0,68,0.00,,,0.00,meteohub,2013-07-29 14:58:00,
2013-07-29 10:03:00,83.7,72.3,30.06,East,90,8.0,14.0,69,0.00,,,0.00,meteohub,2013-07-29 15:03:00,
2013-07-29 10:08:00,82.9,72.1,30.06,NE,45,12.0,12.0,70,0.00,,,0.00,meteohub,2013-07-29 15:08:00,
2013-07-29 10:14:00,82.8,72.0,30.06,East,90,8.0,11.0,70,0.00,,,0.00,meteohub,2013-07-29 15:14:00,
2013-07-29 10:19:00,83.1,72.3,30.06,East,90,8.0,12.0,70,0.00,,,0.00,meteohub,2013-07-29 15:19:00,
2013-07-29 10:24:00,84.6,72.3,30.05,NE,45,8.0,12.0,67,0.00,,,0.00,meteohub,2013-07-29 15:24:00,
2013-07-29 10:29:00,85.6,73.0,30.05,East,90,6.0,15.0,66,0.00,,,0.00,meteohub,2013-07-29 15:29:00,
2013-07-29 10:35:00,87.1,73.4,30.05,NE,45,6.0,15.0,64,0.00,,,0.00,meteohub,2013-07-29 15:35:00,
2013-07-29 10:40:00,88.3,73.2,30.05,SE,135,10.0,15.0,61,0.00,,,0.00,meteohub,2013-07-29 15:40:00,
2013-07-29 10:45:00,88.7,73.0,30.05,SE,135,13.0,15.0,60,0.00,,,0.00,meteohub,2013-07-29 15:45:00,
2013-07-29 10:50:00,88.7,73.0,30.05,NE,45,6.0,13.0,60,0.00,,,0.00,meteohub,2013-07-29 15:50:00,
2013-07-29 10:55:00,88.9,72.1,30.05,SE,135,8.0,13.0,58,0.00,,,0.00,meteohub,2013-07-29 15:55:00,
2013-07-29 11:00:00,88.7,71.4,30.05,SE,135,8.0,13.0,57,0.00,,,0.00,meteohub,2013-07-29 16:00:00,
2013-07-29 11:05:00,89.2,71.4,30.06,East,90,12.0,13.0,56,0.00,,,0.00,meteohub,2013-07-29 16:05:00,
2013-07-29 11:11:00,89.4,72.1,30.06,East,90,11.0,12.0,57,0.00,,,0.00,meteohub,2013-07-29 16:11:00,
2013-07-29 11:16:00,89.1,71.2,30.05,East,90,10.0,12.0,56,0.00,,,0.00,meteohub,2013-07-29 16:16:00,
2013-07-29 11:22:00,89.6,71.2,30.05,East,90,7.0,12.0,55,0.00,,,0.00,meteohub,2013-07-29 16:22:00,
2013-07-29 11:27:00,90.0,71.6,30.05,East,90,8.0,11.0,55,0.00,,,0.00,meteohub,2013-07-29 16:27:00,
2013-07-29 11:32:00,89.6,70.2,30.05,SE,135,17.0,17.0,53,0.00,,,0.00,meteohub,2013-07-29 16:32:00,
2013-07-29 11:37:00,89.8,70.3,30.05,SE,135,9.0,17.0,53,0.00,,,0.00,meteohub,2013-07-29 16:37:00,
2013-07-29 11:42:00,90.0,70.5,30.05,East,90,8.0,17.0,53,0.00,,,0.00,meteohub,2013-07-29 16:42:00,
2013-07-29 11:48:00,90.9,70.9,30.05,NE,45,9.0,17.0,52,0.00,,,0.00,meteohub,2013-07-29 16:48:00,
2013-07-29 11:53:00,91.2,71.6,30.05,NE,45,6.0,14.0,53,0.00,,,0.00,meteohub,2013-07-29 16:53:00,
2013-07-29 11:58:00,92.1,71.4,30.05,East,90,6.0,13.0,51,0.00,,,0.00,meteohub,2013-07-29 16:58:00,
2013-07-29 12:03:00,92.7,70.2,30.06,NE,45,8.0,13.0,48,0.00,,,0.00,meteohub,2013-07-29 17:03:00,
2013-07-29 12:09:00,92.3,70.3,30.05,NE,45,7.0,11.0,49,0.00,,,0.00,meteohub,2013-07-29 17:09:00,
2013-07-29 12:14:00,92.8,69.6,30.05,NE,45,8.0,11.0,47,0.00,,,0.00,meteohub,2013-07-29 17:14:00,
2013-07-29 12:20:00,92.5,69.3,30.05,NE,45,7.0,11.0,47,0.00,,,0.00,meteohub,2013-07-29 17:20:00,
2013-07-29 12:25:00,92.8,69.6,30.05,ENE,68,9.0,11.0,47,0.00,,,0.00,meteohub,2013-07-29 17:25:00,
2013-07-29 12:30:00,93.6,69.1,30.05,NE,45,6.0,11.0,45,0.00,,,0.00,meteohub,2013-07-29 17:30:00,
2013-07-29 12:35:00,93.4,68.9,30.05,SSE,158,11.0,12.0,45,0.00,,,0.00,meteohub,2013-07-29 17:35:00,
2013-07-29 12:41:00,94.6,70.0,30.05,ENE,68,9.0,12.0,45,0.00,,,0.00,meteohub,2013-07-29 17:41:00,
2013-07-29 12:46:00,93.7,68.5,30.05,East,90,6.0,12.0,44,0.00,,,0.00,meteohub,2013-07-29 17:46:00,
2013-07-29 12:52:00,93.2,68.7,30.05,East,90,4.0,11.0,45,0.00,,,0.00,meteohub,2013-07-29 17:52:00,
2013-07-29 12:57:00,94.5,69.3,30.05,ENE,68,14.0,14.0,44,0.00,,,0.00,meteohub,2013-07-29 17:57:00,
2013-07-29 13:02:00,93.9,68.7,30.05,NE,45,8.0,15.0,44,0.00,,,0.00,meteohub,2013-07-29 18:02:00,
2013-07-29 13:07:00,94.6,67.3,30.05,ENE,68,6.0,15.0,41,0.00,,,0.00,meteohub,2013-07-29 18:07:00,
2013-07-29 13:12:00,95.5,68.0,30.04,East,90,8.0,15.0,41,0.00,,,0.00,meteohub,2013-07-29 18:12:00,
2013-07-29 13:17:00,96.1,67.8,30.04,NE,45,4.0,14.0,40,0.00,,,0.00,meteohub,2013-07-29 18:17:00,
2013-07-29 13:22:00,96.8,68.5,30.04,NE,45,11.0,14.0,40,0.00,,,0.00,meteohub,2013-07-29 18:22:00,
2013-07-29 13:27:00,96.6,68.4,30.04,ENE,68,11.0,14.0,40,0.00,,,0.00,meteohub,2013-07-29 18:27:00,
2013-07-29 13:32:00,96.4,67.5,30.04,NE,45,7.0,13.0,39,0.00,,,0.00,meteohub,2013-07-29 18:32:00,
2013-07-29 13:37:00,95.2,67.8,30.04,ENE,68,6.0,13.0,41,0.00,,,0.00,meteohub,2013-07-29 18:37:00,
2013-07-29 13:42:00,96.3,66.6,30.04,East,90,11.0,11.0,38,0.00,,,0.00,meteohub,2013-07-29 18:42:00,
2013-07-29 13:48:00,96.6,66.9,30.03,North,0,8.0,11.0,38,0.00,,,0.00,meteohub,2013-07-29 18:48:00,
2013-07-29 13:53:00,96.4,65.8,30.04,East,90,6.0,11.0,37,0.00,,,0.00,meteohub,2013-07-29 18:53:00,
2013-07-29 13:58:00,96.6,65.3,30.03,NE,45,10.0,18.0,36,0.00,,,0.00,meteohub,2013-07-29 18:58:00,
2013-07-29 14:03:00,96.6,66.0,30.03,NE,45,7.0,18.0,37,0.00,,,0.00,meteohub,2013-07-29 19:03:00,
2013-07-29 14:08:00,97.0,64.8,30.03,North,0,8.0,17.0,35,0.00,,,0.00,meteohub,2013-07-29 19:08:00,
2013-07-29 14:14:00,98.2,66.7,30.02,NE,45,4.0,17.0,36,0.00,,,0.00,meteohub,2013-07-29 19:14:00,
2013-07-29 14:19:00,98.2,64.2,30.02,NE,45,8.0,17.0,33,0.00,,,0.00,meteohub,2013-07-29 19:19:00,
2013-07-29 14:24:00,97.3,63.5,30.02,East,90,14.0,14.0,33,0.00,,,0.00,meteohub,2013-07-29 19:24:00,
2013-07-29 14:30:00,96.6,64.4,30.02,ENE,68,10.0,25.0,35,0.00,,,0.00,meteohub,2013-07-29 19:30:00,
2013-07-29 14:35:00,96.8,64.6,30.02,NE,45,11.0,25.0,35,0.00,,,0.00,meteohub,2013-07-29 19:35:00,
2013-07-29 14:41:00,97.7,63.7,30.02,ESE,113,9.0,15.0,33,0.00,,,0.00,meteohub,2013-07-29 19:41:00,
2013-07-29 14:46:00,97.7,64.6,30.01,East,90,9.0,15.0,34,0.00,,,0.00,meteohub,2013-07-29 19:46:00,
2013-07-29 14:51:00,98.1,65.7,30.02,East,90,8.0,13.0,35,0.00,,,0.00,meteohub,2013-07-29 19:51:00,
2013-07-29 14:56:00,99.1,64.9,30.01,East,90,14.0,14.0,33,0.00,,,0.00,meteohub,2013-07-29 19:56:00,
2013-07-29 15:02:00,98.8,63.9,30.01,NE,45,8.0,14.0,32,0.00,,,0.00,meteohub,2013-07-29 20:02:00,
2013-07-29 15:07:00,98.6,63.7,30.01,NE,45,10.0,14.0,32,0.00,,,0.00,meteohub,2013-07-29 20:07:00,
2013-07-29 15:12:00,98.6,63.7,30.01,NE,45,7.0,15.0,32,0.00,,,0.00,meteohub,2013-07-29 20:12:00,
2013-07-29 15:17:00,99.5,63.5,30.01,NE,45,8.0,15.0,31,0.00,,,0.00,meteohub,2013-07-29 20:17:00,
2013-07-29 15:23:00,99.7,63.7,30.01,NE,45,9.0,14.0,31,0.00,,,0.00,meteohub,2013-07-29 20:23:00,
2013-07-29 15:28:00,100.0,64.0,30.01,NE,45,8.0,11.0,31,0.00,,,0.00,meteohub,2013-07-29 20:28:00,
2013-07-29 15:33:00,99.3,63.3,30.01,East,90,8.0,11.0,31,0.00,,,0.00,meteohub,2013-07-29 20:33:00,
2013-07-29 15:38:00,99.7,65.5,30.01,NE,45,4.0,12.0,33,0.00,,,0.00,meteohub,2013-07-29 20:38:00,
2013-07-29 15:43:00,100.4,65.1,30.01,East,90,8.0,12.0,32,0.00,,,0.00,meteohub,2013-07-29 20:43:00,
2013-07-29 15:49:00,99.7,64.6,30.01,NE,45,12.0,12.0,32,0.00,,,0.00,meteohub,2013-07-29 20:49:00,
2013-07-29 15:55:00,99.5,64.4,30.00,East,90,11.0,12.0,32,0.00,,,0.00,meteohub,2013-07-29 20:55:00,
2013-07-29 16:00:00,99.9,64.8,30.00,East,90,9.0,12.0,32,0.00,,,0.00,meteohub,2013-07-29 21:00:00,
2013-07-29 16:05:00,99.7,64.6,30.00,SE,135,4.0,12.0,32,0.00,,,0.00,meteohub,2013-07-29 21:05:00,
2013-07-29 16:10:00,100.6,68.0,30.00,East,90,8.0,13.0,35,0.00,,,0.00,meteohub,2013-07-29 21:10:00,
2013-07-29 16:16:00,100.4,67.8,30.00,NE,45,8.0,13.0,35,0.00,,,0.00,meteohub,2013-07-29 21:16:00,
2013-07-29 16:21:00,99.9,64.8,29.99,East,90,8.0,13.0,32,0.00,,,0.00,meteohub,2013-07-29 21:21:00,
2013-07-29 16:26:00,99.7,64.6,29.99,ENE,68,7.0,12.0,32,0.00,,,0.00,meteohub,2013-07-29 21:26:00,
2013-07-29 16:31:00,100.6,68.0,29.99,NE,45,6.0,12.0,35,0.00,,,0.00,meteohub,2013-07-29 21:31:00,
2013-07-29 16:36:00,101.1,66.7,29.99,ENE,68,6.0,11.0,33,0.00,,,0.00,meteohub,2013-07-29 21:36:00,
2013-07-29 16:41:00,100.6,68.0,29.99,NE,45,8.0,15.0,35,0.00,,,0.00,meteohub,2013-07-29 21:41:00,
2013-07-29 16:47:00,101.1,66.7,29.99,NE,45,5.0,15.0,33,0.00,,,0.00,meteohub,2013-07-29 21:47:00,
2013-07-29 16:53:00,101.5,66.2,29.99,East,90,12.0,15.0,32,0.00,,,0.00,meteohub,2013-07-29 21:53:00,
2013-07-29 16:58:00,100.6,66.2,29.99,SE,135,12.0,15.0,33,0.00,,,0.00,meteohub,2013-07-29 21:58:00,
2013-07-29 17:03:00,100.6,65.3,29.99,East,90,11.0,15.0,32,0.00,,,0.00,meteohub,2013-07-29 22:03:00,
2013-07-29 17:08:00,99.9,63.9,29.99,North,0,8.0,15.0,31,0.00,,,0.00,meteohub,2013-07-29 22:08:00,
2013-07-29 17:13:00,100.0,64.0,29.99,East,90,7.0,12.0,31,0.00,,,0.00,meteohub,2013-07-29 22:13:00,
2013-07-29 17:18:00,100.0,64.0,29.99,East,90,11.0,13.0,31,0.00,,,0.00,meteohub,2013-07-29 22:18:00,
2013-07-29 17:23:00,100.0,64.0,29.99,East,90,9.0,14.0,31,0.00,,,0.00,meteohub,2013-07-29 22:23:00,
2013-07-29 17:29:00,100.6,66.2,29.98,ENE,68,7.0,14.0,33,0.00,,,0.00,meteohub,2013-07-29 22:29:00,
2013-07-29 17:34:00,100.0,64.0,29.99,ENE,68,4.0,14.0,31,0.00,,,0.00,meteohub,2013-07-29 22:34:00,
2013-07-29 17:39:00,100.0,64.0,29.99,NE,45,11.0,13.0,31,0.00,,,0.00,meteohub,2013-07-29 22:39:00,
2013-07-29 17:45:00,100.4,63.3,29.99,East,90,15.0,15.0,30,0.00,,,0.00,meteohub,2013-07-29 22:45:00,
2013-07-29 17:50:00,99.7,64.6,29.99,ENE,68,10.0,12.0,32,0.00,,,0.00,meteohub,2013-07-29 22:50:00,
2013-07-29 17:55:00,99.3,64.2,29.99,NE,45,8.0,15.0,32,0.00,,,0.00,meteohub,2013-07-29 22:55:00,
2013-07-29 18:00:00,99.1,64.0,29.99,East,90,8.0,15.0,32,0.00,,,0.00,meteohub,2013-07-29 23:00:00,
2013-07-29 18:05:00,99.5,65.3,29.99,SE,135,9.0,15.0,33,0.00,,,0.00,meteohub,2013-07-29 23:05:00,
2013-07-29 18:11:00,99.3,65.1,29.98,NE,45,10.0,15.0,33,0.00,,,0.00,meteohub,2013-07-29 23:11:00,
2013-07-29 18:16:00,99.5,66.2,29.99,ENE,68,6.0,13.0,34,0.00,,,0.00,meteohub,2013-07-29 23:16:00,
2013-07-29 18:22:00,99.3,66.0,29.98,NE,45,5.0,12.0,34,0.00,,,0.00,meteohub,2013-07-29 23:22:00,
2013-07-29 18:27:00,99.9,66.4,29.98,East,90,9.0,12.0,34,0.00,,,0.00,meteohub,2013-07-29 23:27:00,
2013-07-29 18:32:00,99.5,65.3,29.98,NE,45,11.0,12.0,33,0.00,,,0.00,meteohub,2013-07-29 23:32:00,
2013-07-29 18:38:00,98.1,65.7,29.97,ENE,68,8.0,12.0,35,0.00,,,0.00,meteohub,2013-07-29 23:38:00,
2013-07-29 18:43:00,98.4,66.0,29.98,NE,45,9.0,12.0,35,0.00,,,0.00,meteohub,2013-07-29 23:43:00,
2013-07-29 18:48:00,98.1,65.7,29.98,East,90,4.0,13.0,35,0.00,,,0.00,meteohub,2013-07-29 23:48:00,
2013-07-29 18:53:00,98.6,65.3,29.98,North,0,8.0,13.0,34,0.00,,,0.00,meteohub,2013-07-29 23:53:00,
2013-07-29 18:58:00,97.9,64.8,29.98,NNE,23,10.0,13.0,34,0.00,,,0.00,meteohub,2013-07-29 23:58:00,
2013-07-29 19:03:00,97.9,64.8,29.98,NE,45,5.0,14.0,34,0.00,,,0.00,meteohub,2013-07-30 00:03:00,
2013-07-29 19:09:00,97.5,65.3,29.98,NE,45,8.0,14.0,35,0.00,,,0.00,meteohub,2013-07-30 00:09:00,
2013-07-29 19:14:00,97.3,64.2,29.98,East,90,4.0,11.0,34,0.00,,,0.00,meteohub,2013-07-30 00:14:00,
2013-07-29 19:19:00,97.2,64.0,29.98,NE,45,5.0,11.0,34,0.00,,,0.00,meteohub,2013-07-30 00:19:00,
2013-07-29 19:24:00,96.6,64.4,29.98,NE,45,4.0,10.0,35,0.00,,,0.00,meteohub,2013-07-30 00:24:00,
2013-07-29 19:29:00,96.1,64.8,29.98,East,90,10.0,10.0,36,0.00,,,0.00,meteohub,2013-07-30 00:29:00,
2013-07-29 19:35:00,95.5,65.1,29.98,East,90,5.0,11.0,37,0.00,,,0.00,meteohub,2013-07-30 00:35:00,
2013-07-29 19:40:00,94.5,64.9,29.98,East,90,9.0,11.0,38,0.00,,,0.00,meteohub,2013-07-30 00:40:00,
2013-07-29 19:45:00,94.3,64.8,29.98,NE,45,9.0,11.0,38,0.00,,,0.00,meteohub,2013-07-30 00:45:00,
2013-07-29 19:50:00,93.9,64.4,29.98,East,90,7.0,11.0,38,0.00,,,0.00,meteohub,2013-07-30 00:50:00,
2013-07-29 19:55:00,93.0,64.4,29.98,NE,45,8.0,11.0,39,0.00,,,0.00,meteohub,2013-07-30 00:55:00,
2013-07-29 20:00:00,92.7,64.0,29.99,NE,45,5.0,14.0,39,0.00,,,0.00,meteohub,2013-07-30 01:00:00,
2013-07-29 20:05:00,92.1,64.4,29.99,NE,45,6.0,14.0,40,0.00,,,0.00,meteohub,2013-07-30 01:05:00,
2013-07-29 20:11:00,91.8,63.3,29.99,East,90,6.0,8.0,39,0.00,,,0.00,meteohub,2013-07-30 01:11:00,
2013-07-29 20:16:00,91.4,63.0,29.99,North,0,8.0,8.0,39,0.00,,,0.00,meteohub,2013-07-30 01:16:00,
2013-07-29 20:21:00,91.2,62.8,30.00,East,90,6.0,11.0,39,0.00,,,0.00,meteohub,2013-07-30 01:21:00,
2013-07-29 20:26:00,90.9,63.9,30.00,East,90,8.0,11.0,41,0.00,,,0.00,meteohub,2013-07-30 01:26:00,
2013-07-29 20:31:00,90.5,63.5,30.01,East,90,8.0,11.0,41,0.00,,,0.00,meteohub,2013-07-30 01:31:00,
2013-07-29 20:36:00,90.1,63.3,30.01,North,0,4.0,11.0,41,0.00,,,0.00,meteohub,2013-07-30 01:36:00,
2013-07-29 20:41:00,90.0,63.9,30.01,NE,45,6.0,8.0,42,0.00,,,0.00,meteohub,2013-07-30 01:41:00,
2013-07-29 20:47:00,89.6,64.2,30.01,NE,45,4.0,8.0,43,0.00,,,0.00,meteohub,2013-07-30 01:47:00,
2013-07-29 20:52:00,89.1,64.9,30.01,NE,45,8.0,8.0,45,0.00,,,0.00,meteohub,2013-07-30 01:52:00,
2013-07-29 20:57:00,88.9,65.5,30.01,East,90,4.0,8.0,46,0.00,,,0.00,meteohub,2013-07-30 01:57:00,
2013-07-29 21:02:00,88.7,65.8,30.02,NE,45,3.0,8.0,47,0.00,,,0.00,meteohub,2013-07-30 02:02:00,
2013-07-29 21:07:00,88.3,66.2,30.02,East,90,7.0,8.0,48,0.00,,,0.00,meteohub,2013-07-30 02:07:00,
2013-07-29 21:12:00,88.2,66.6,30.02,SW,225,5.0,8.0,49,0.00,,,0.00,meteohub,2013-07-30 02:12:00,
2013-07-29 21:17:00,87.8,66.2,30.03,East,90,5.0,8.0,49,0.00,,,0.00,meteohub,2013-07-30 02:17:00,
2013-07-29 21:22:00,87.6,67.3,30.03,ENE,68,4.0,9.0,51,0.00,,,0.00,meteohub,2013-07-30 02:22:00,
2013-07-29 21:27:00,87.3,66.9,30.03,East,90,4.0,9.0,51,0.00,,,0.00,meteohub,2013-07-30 02:27:00,
2013-07-29 21:32:00,87.1,67.3,30.03,East,90,9.0,9.0,52,0.00,,,0.00,meteohub,2013-07-30 02:32:00,
2013-07-29 21:37:00,86.9,67.1,30.04,ENE,68,4.0,9.0,52,0.00,,,0.00,meteohub,2013-07-30 02:37:00,
2013-07-29 21:42:00,86.7,67.5,30.04,NE,45,8.0,9.0,53,0.00,,,0.00,meteohub,2013-07-30 02:42:00,
2013-07-29 21:47:00,86.5,67.5,30.04,NE,45,5.0,9.0,53,0.00,,,0.00,meteohub,2013-07-30 02:47:00,
2013-07-29 21:52:00,86.4,67.3,30.05,East,90,5.0,8.0,53,0.00,,,0.00,meteohub,2013-07-30 02:52:00,
2013-07-29 21:57:00,86.2,67.1,30.05,North,0,3.0,8.0,53,0.00,,,0.00,meteohub,2013-07-30 02:57:00,
2013-07-29 22:02:00,86.0,66.9,30.05,NE,45,8.0,8.0,53,0.00,,,0.00,meteohub,2013-07-30 03:02:00,
2013-07-29 22:07:00,85.8,67.3,30.05,NE,45,6.0,9.0,54,0.00,,,0.00,meteohub,2013-07-30 03:07:00,
2013-07-29 22:12:00,85.8,67.8,30.05,SE,135,8.0,14.0,55,0.00,,,0.00,meteohub,2013-07-30 03:12:00,
2013-07-29 22:17:00,85.6,67.6,30.05,NE,45,6.0,14.0,55,0.00,,,0.00,meteohub,2013-07-30 03:17:00,
2013-07-29 22:23:00,85.5,68.0,30.05,East,90,8.0,14.0,56,0.00,,,0.00,meteohub,2013-07-30 03:23:00,
2013-07-29 22:28:00,85.3,67.8,30.05,East,90,6.0,10.0,56,0.00,,,0.00,meteohub,2013-07-30 03:28:00,
2013-07-29 22:33:00,84.9,68.0,30.05,East,90,4.0,8.0,57,0.00,,,0.00,meteohub,2013-07-30 03:33:00,
2013-07-29 22:38:00,84.6,68.2,30.06,East,90,4.0,8.0,58,0.00,,,0.00,meteohub,2013-07-30 03:38:00,
2013-07-29 22:43:00,84.6,68.7,30.06,North,0,5.0,8.0,59,0.00,,,0.00,meteohub,2013-07-30 03:43:00,
2013-07-29 22:48:00,84.6,69.1,30.06,NE,45,7.0,9.0,60,0.00,,,0.00,meteohub,2013-07-30 03:48:00,
2013-07-29 22:54:00,84.4,69.4,30.05,NE,45,4.0,11.0,61,0.00,,,0.00,meteohub,2013-07-30 03:54:00,
2013-07-29 22:59:00,84.0,70.0,30.06,NE,45,5.0,11.0,63,0.00,,,0.00,meteohub,2013-07-30 03:59:00,
2013-07-29 23:01:00,84.0,70.0,30.05,ENE,68,8.0,11.0,63,0.00,,,0.00,meteohub,2013-07-30 04:01:00,
2013-07-29 23:02:00,84.0,70.0,30.06,ENE,68,8.0,11.0,63,0.00,,,0.00,meteohub,2013-07-30 04:02:00,
2013-07-29 23:03:00,84.0,70.0,30.06,ENE,68,8.0,11.0,63,0.00,,,0.00,meteohub,2013-07-30 04:03:00,
2013-07-29 23:08:00,83.7,70.2,30.05,East,90,8.0,11.0,64,0.00,,,0.00,meteohub,2013-07-30 04:08:00,
2013-07-29 23:13:00,83.7,70.7,30.05,East,90,3.0,11.0,65,0.00,,,0.00,meteohub,2013-07-30 04:13:00,
2013-07-29 23:18:00,83.3,70.3,30.04,East,90,4.0,8.0,65,0.00,,,0.00,meteohub,2013-07-30 04:18:00,
2013-07-29 23:23:00,83.1,70.2,30.05,ENE,68,5.0,13.0,65,0.00,,,0.00,meteohub,2013-07-30 04:23:00,
2013-07-29 23:28:00,82.9,70.0,30.05,East,90,6.0,13.0,65,0.00,,,0.00,meteohub,2013-07-30 04:28:00,
2013-07-29 23:33:00,82.8,70.2,30.05,NE,45,6.0,7.0,66,0.00,,,0.00,meteohub,2013-07-30 04:33:00,
2013-07-29 23:39:00,82.8,70.7,30.05,NE,45,6.0,10.0,67,0.00,,,0.00,meteohub,2013-07-30 04:39:00,
2013-07-29 23:44:00,82.4,70.3,30.06,NE,45,8.0,10.0,67,0.00,,,0.00,meteohub,2013-07-30 04:44:00,
2013-07-29 23:49:00,82.2,71.1,30.05,ESE,113,5.0,10.0,69,0.00,,,0.00,meteohub,2013-07-30 04:49:00,
2013-07-29 23:54:00,82.0,71.2,30.05,ENE,68,10.0,10.0,70,0.00,,,0.00,meteohub,2013-07-30 04:54:00,
2013-07-29 23:59:00,82.0,71.8,30.06,NE,45,4.0,10.0,71,0.00,,,0.00,meteohub,2013-07-30 04:59:00,